STARLINK-1914 (47180 NORAD) Tracking and Keplerian Element Data

This shows tracking and keplerian element data for the satellite.

Feedback or suggestion? Click here.




ElementValue
Catalog47180
NameSTARLINK-1914
Epoch Orbit175
Epoch Day15.91667824
Epoch Year2021
RAAN105.7498
Inclination53.0569
Eccentricity0.0001516
Argument of Perigee63.6779
Mean Anonmoly256.1572
Mean Motion15.06405002
Decay Rate-0.00037598
L11 47180U 20088BL 21015.91667824 -.00037598 00000-0 -25182-2 0 9994
L22 47180 53.0569 105.7498 0001516 63.6779 256.1572 15.06405002 1759

Live tracking and technical data element details for STARLINK-1914 (NORAD 47180). STARLINK-1914 can be tracked NOW for your location showing map with azimuth and elevation plus other details from your city location.

Track the satellite on the map from your city or location and see movement details for azimuth, elevation, latitude, longitude, range, height, and movement on the map or in text.







IsCatalogInMostPopularTable: catalog: 47180, numindb: 26
Update: records affected: 1



GetName: 47180 STARLINK-1914

Hit Count: updated at: Sun, 17 Jan 2021 08:46:02 GMT